{"data":{"norad_id":58741,"intl_designator":"2024-005P","name":"STARLINK-31148","alt_names":[],"object_type":"PAYLOAD","status":"ACTIVE","operator":null,"country":"US","launch_date":"2024-01-07","launch_site_code":"AFETR","launch_vehicle":null,"mission":null,"orbit_class":"UNKNOWN","rcs_meters":null,"size_class":null,"mass_kg":null,"dimensions":null,"purposes":["comms"],"wikipedia_slug":null,"has_3d_model":false,"image_url":null,"decayed_at":null,"tle_current":{"epoch":"2026-05-25T00:58:35.207328Z","epoch_age_seconds":71215,"freshness":"FRESH","line1":"1 58741U 24005P   26145.04068527 -.00000424  00000+0 -59005-5 0  9991","line2":"2 58741  43.0005 148.3104 0000901 268.3516  91.7232 15.27573792132122","mean_motion":15.27573792,"eccentricity":9.01e-5,"inclination_deg":43.0005,"raan_deg":148.3104,"arg_perigee_deg":268.3516,"mean_anomaly_deg":91.7232,"bstar":-5.9005e-6,"rev_number":13212,"period_min":94.267131810023,"perigee_km":482.4494905458,"apogee_km":483.68587963005,"semimajor_km":6861.2046850879,"source":"CELESTRAK","updated_at":"2026-05-25T13:38:18.737839Z"}}}